Weather History for Cheboygan, MI

Change the Weather History Date:

Sunday, January 26, 2014

  Actual Average (KPLN) Record (KPLN)
Temperature  
Mean Temperature 2 °F -  
Max Temperature 10 °F 26 °F 50 °F (1973)
Min Temperature -7 °F 6 °F -27 °F (1953)
Degree Days  
Heating Degree Days 64    
Moisture  
Dew Point 0 °F    
Average Humidity 83    
Maximum Humidity 89    
Minimum Humidity 70    
Precipitation  
Precipitation 0.00 in - - ()
Sea Level Pressure  
Sea Level Pressure 29.42 in    
Wind  
Wind Speed 6 mph (SSE)    
Max Wind Speed 12 mph    
Max Gust Speed -    
Visibility 5 miles    
Events Snow    
Averages and records for this station are not official NWS values.
T = Trace of Precipitation, MM = Missing Value Source: NWS Daily Summary

Daily Weather History Graph

Daily Weather History Graph

Search for Another Location

Airport:

Trip Planner

Search our weather history database for the weather conditions in past years. The results will help you decide how hot, cold, wet, or windy it might be!

Date:

Astronomy

Jan. 26, 2014 Rise Set
Actual Time 8:06 AM EST 5:35 PM EST
Civil Twilight 7:33 AM EST 6:07 PM EST
Nautical Twilight 6:57 AM EST 6:44 PM EST
Astronomical Twilight 6:22 AM EST 7:19 PM EST
Moon 3:43 AM EST (1/26) 1:22 PM EST (1/26)
Length of Visible Light 10h 34m
Length of Day
9h 29m
Waning Crescent, 24% of the Moon is Illuminated
Jan 26
Waning Crescent
Jan 30
New
Feb 6
First Quarter
Feb 14
Full
Feb 22
Last Quarter

Hourly Weather History & Observations

Time (EST) Temp. Windchill Dew Point Humidity Pressure Visibility Wind Dir Wind Speed Gust Speed Precip Events Conditions
12:15 AM 1.4 °F -14.5 °F -6.3 °F 70% 29.60 in 10.0 mi West 10.4 mph - N/A   Clear
12:35 AM 1.2 °F -13.7 °F -6.2 °F 71% 29.60 in 10.0 mi West 9.2 mph - N/A   Clear
12:55 AM 0.9 °F -13.1 °F -6.0 °F 73% 29.59 in 10.0 mi WSW 8.1 mph - N/A   Clear
1:15 AM 0.1 °F -12.8 °F -6.0 °F 75% 29.59 in 10.0 mi WSW 6.9 mph - N/A   Clear
1:35 AM -0.0 °F -11.6 °F -5.8 °F 77% 29.59 in 10.0 mi WSW 5.8 mph - N/A   Clear
1:55 AM -0.0 °F -11.6 °F -5.6 °F 77% 29.59 in 10.0 mi WSW 5.8 mph - N/A   Clear
2:15 AM -0.4 °F -12.0 °F -5.8 °F 78% 29.58 in 10.0 mi WSW 5.8 mph - N/A   Clear
2:35 AM -1.7 °F -11.8 °F -6.3 °F 80% 29.58 in 10.0 mi WSW 4.6 mph - N/A   Clear
2:55 AM -2.2 °F -10.4 °F -6.7 °F 81% 29.58 in 10.0 mi West 3.5 mph - N/A   Clear
3:15 AM -2.4 °F -14.4 °F -6.7 °F 82% 29.57 in 10.0 mi WSW 5.8 mph - N/A   Clear
3:31 AM -6.3 °F -20.6 °F -11.4 °F 79% 29.58 in 10.0 mi NE 6.9 mph - N/A   Clear
3:55 AM -7.1 °F - -9.9 °F 87% 29.58 in 10.0 mi Calm Calm - N/A   Clear
4:15 AM -6.3 °F - -10.1 °F 84% 29.58 in 10.0 mi Calm Calm - N/A   Clear
4:35 AM -6.9 °F - -10.5 °F 84% 29.58 in 10.0 mi Calm Calm - N/A   Clear
4:55 AM -6.7 °F - -10.3 °F 84% 29.58 in 10.0 mi Calm Calm - N/A   Clear
5:15 AM -6.3 °F - -10.7 °F 82% 29.58 in 10.0 mi Calm Calm - N/A   Scattered Clouds
5:35 AM -4.2 °F -12.6 °F -8.1 °F 83% 29.59 in 10.0 mi SSE 3.5 mph - N/A   Mostly Cloudy
5:55 AM -3.6 °F - -7.6 °F 83% 29.58 in 10.0 mi Calm Calm - N/A   Overcast
6:15 AM -3.8 °F - -7.8 °F 83% 29.58 in 10.0 mi Calm Calm - N/A   Overcast
6:35 AM -3.5 °F - -7.1 °F 85% 29.57 in 10.0 mi Calm Calm - N/A   Overcast
6:55 AM -2.9 °F - -6.7 °F 84% 29.57 in 10.0 mi Calm Calm - N/A   Overcast
7:15 AM -2.6 °F - -6.3 °F 84% 29.56 in 10.0 mi Calm Calm - N/A   Overcast
7:35 AM -1.8 °F -9.9 °F -5.8 °F 83% 29.55 in 10.0 mi ESE 3.5 mph - N/A   Overcast
7:55 AM -1.7 °F - -5.4 °F 84% 29.54 in 10.0 mi Calm Calm - N/A   Overcast
8:15 AM -1.3 °F - -5.1 °F 84% 29.52 in 4.0 mi Calm Calm - N/A Snow Light Snow
8:35 AM 0.1 °F -7.7 °F -3.6 °F 84% 29.53 in 3.0 mi SSE 3.5 mph - N/A   Overcast
8:55 AM 0.1 °F -7.7 °F -3.6 °F 84% 29.52 in 4.0 mi SSE 3.5 mph - N/A   Overcast
9:15 AM 0.9 °F - -2.9 °F 84% 29.51 in 2.0 mi Calm Calm - N/A Snow Light Snow
9:35 AM 1.4 °F -6.2 °F -2.2 °F 85% 29.49 in 3.0 mi SE 3.5 mph - N/A   Overcast
9:55 AM 2.7 °F -6.8 °F -1.3 °F 84% 29.48 in 5.0 mi SE 4.6 mph - N/A   Overcast
10:15 AM 3.9 °F -6.9 °F 0.1 °F 84% 29.46 in 3.0 mi SSE 5.8 mph - N/A Snow Light Snow
10:36 AM 5.7 °F -6.1 °F 1.2 °F 82% 29.45 in 7.0 mi SSE 6.9 mph - N/A   Overcast
10:55 AM 6.4 °F -3.9 °F 1.4 °F 80% 29.44 in 10.0 mi SSE 5.8 mph - N/A   Overcast
11:15 AM 7.5 °F -3.9 °F 1.9 °F 78% 29.44 in 10.0 mi South 6.9 mph - N/A   Overcast
11:35 AM 7.7 °F -2.4 °F 2.1 °F 78% 29.44 in 7.0 mi South 5.8 mph - N/A   Overcast
11:55 AM 8.1 °F -4.3 °F 2.7 °F 79% 29.43 in 2.0 mi SSE 8.1 mph - N/A Snow Light Snow
12:15 PM 8.1 °F -4.3 °F 3.0 °F 80% 29.42 in 1.8 mi SSE 8.1 mph - N/A Snow Light Snow
12:35 PM 8.2 °F -1.8 °F 3.4 °F 81% 29.41 in 1.5 mi South 5.8 mph - N/A Snow Light Snow
12:55 PM 8.6 °F -3.7 °F 3.9 °F 81% 29.40 in 1.2 mi SSE 8.1 mph - N/A Snow Light Snow
1:15 PM 8.8 °F -3.5 °F 3.9 °F 81% 29.38 in 2.0 mi SSE 8.1 mph - N/A Snow Light Snow
1:35 PM 8.6 °F -3.7 °F 3.9 °F 81% 29.36 in 2.5 mi SSE 8.1 mph - N/A Snow Light Snow
1:55 PM 9.3 °F -2.8 °F 4.5 °F 81% 29.32 in 2.5 mi SSE 8.1 mph - N/A Snow Light Snow
2:15 PM 9.5 °F -3.5 °F 4.6 °F 81% 29.32 in 1.8 mi SE 9.2 mph - N/A Snow Light Snow
2:35 PM 9.9 °F -2.2 °F 5.0 °F 81% 29.31 in 2.5 mi ESE 8.1 mph - N/A Snow Light Snow
2:55 PM 9.7 °F -1.3 °F 5.2 °F 82% 29.31 in 2.0 mi SE 6.9 mph - N/A Snow Light Snow
3:16 PM 9.5 °F -1.5 °F 5.0 °F 82% 29.30 in 4.0 mi ESE 6.9 mph - N/A Snow Light Snow
3:35 PM 9.5 °F -4.4 °F 4.8 °F 81% 29.30 in 4.0 mi SE 10.4 mph - N/A Snow Light Snow
3:55 PM 9.5 °F -3.5 °F 4.8 °F 81% 29.29 in 5.0 mi ESE 9.2 mph - N/A Snow Light Snow
4:15 PM 9.5 °F -3.5 °F 5.0 °F 82% 29.28 in 4.0 mi ESE 9.2 mph - N/A Snow Light Snow
4:35 PM 9.5 °F -2.6 °F 5.0 °F 82% 29.28 in 2.5 mi ESE 8.1 mph - N/A Snow Light Snow
4:55 PM 9.5 °F -2.6 °F 5.0 °F 82% 29.29 in 1.5 mi ESE 8.1 mph - N/A Snow Light Snow
5:15 PM 9.3 °F -0.5 °F 5.5 °F 85% 29.28 in 1.2 mi ESE 5.8 mph - N/A Snow Light Snow
5:35 PM 9.1 °F -1.9 °F 5.5 °F 85% 29.28 in 2.0 mi ESE 6.9 mph - N/A Snow Light Snow
5:55 PM 9.1 °F -0.7 °F 5.7 °F 86% 29.28 in 2.5 mi ESE 5.8 mph - N/A Snow Light Snow
6:15 PM 9.1 °F -0.7 °F 5.9 °F 87% 29.27 in 1.8 mi East 5.8 mph - N/A Snow Light Snow
6:35 PM 9.1 °F -0.7 °F 5.9 °F 87% 29.27 in 2.0 mi East 5.8 mph - N/A Snow Light Snow
6:55 PM 9.0 °F 0.6 °F 6.1 °F 88% 29.27 in 2.5 mi East 4.6 mph - N/A Snow Light Snow
7:15 PM 8.6 °F -1.3 °F 5.9 °F 89% 29.25 in 2.0 mi East 5.8 mph - N/A Snow Light Snow
7:35 PM 8.6 °F 0.1 °F 5.9 °F 89% 29.25 in 1.8 mi East 4.6 mph - N/A Snow Light Snow
7:55 PM 9.0 °F 2.4 °F 5.9 °F 87% 29.25 in 1.5 mi East 3.5 mph - N/A Snow Light Snow
8:15 PM 9.0 °F -2.2 °F 6.3 °F 89% 29.25 in 2.0 mi NE 6.9 mph - N/A Snow Light Snow
8:35 PM 9.3 °F 1.0 °F 6.4 °F 88% 29.25 in 2.0 mi NNE 4.6 mph - N/A Snow Light Snow
8:55 PM 9.5 °F - 6.8 °F 89% 29.26 in 1.5 mi Calm Calm - N/A Snow Light Snow
9:15 PM 10.6 °F - 7.7 °F 88% 29.26 in 1.0 mi Calm Calm - N/A Snow Snow
9:35 PM 10.0 °F 1.8 °F 7.0 °F 87% 29.27 in 1.0 mi West 4.6 mph - N/A Snow Snow
9:55 PM 9.5 °F -3.5 °F 6.6 °F 88% 29.29 in 1.5 mi NNW 9.2 mph - N/A Snow Light Snow
10:16 PM 7.5 °F -7.7 °F 4.1 °F 86% 29.31 in 2.5 mi NW 11.5 mph - N/A Snow Light Snow
10:35 PM 5.9 °F -8.9 °F 2.3 °F 85% 29.32 in 2.5 mi WNW 10.4 mph - N/A Snow Light Snow
10:55 PM 5.7 °F -8.2 °F 1.9 °F 84% 29.34 in 2.0 mi WNW 9.2 mph - N/A Snow Light Snow
11:15 PM 5.5 °F -8.4 °F 1.9 °F 85% 29.35 in 1.8 mi WNW 9.2 mph - N/A Snow Light Snow
11:35 PM 5.2 °F -9.8 °F 1.0 °F 83% 29.36 in 2.5 mi WNW 10.4 mph - N/A Snow Light Snow
11:55 PM 4.8 °F -8.3 °F 0.5 °F 82% 29.37 in 2.5 mi WNW 8.1 mph - N/A Snow Light Snow